Time,TemperatureF,DewpointF,PressureIn,WindDirection,WindDirectionDegrees,WindSpeedMPH,WindSpeedGustMPH,Humidity,HourlyPrecipIn,Conditions,Clouds,dailyrainin,SoftwareType,DateUTC
2014-11-28 00:00:00,59.3,49.5,30.22,North,1,5.0,11.0,70,0.00,,,0.00,Wunderground v.1.15,2014-11-28 05:00:00,
2014-11-28 00:06:00,59.1,49.3,30.22,NW,304,5.0,11.0,70,0.00,,,0.00,Wunderground v.1.15,2014-11-28 05:06:00,
2014-11-28 00:16:00,58.8,49.0,30.22,NNW,341,5.0,8.0,70,0.00,,,0.00,Wunderground v.1.15,2014-11-28 05:16:00,
2014-11-28 00:26:00,58.4,47.9,30.22,North,351,6.0,9.0,68,0.00,,,0.00,Wunderground v.1.15,2014-11-28 05:26:00,
2014-11-28 00:31:00,58.4,47.5,30.22,NNW,338,6.0,6.0,67,0.00,,,0.00,Wunderground v.1.15,2014-11-28 05:31:00,
2014-11-28 00:36:00,58.2,47.3,30.22,NNE,19,6.0,7.0,67,0.00,,,0.00,Wunderground v.1.15,2014-11-28 05:36:00,
2014-11-28 00:41:00,58.0,47.5,30.22,WNW,284,6.0,6.0,68,0.00,,,0.00,Wunderground v.1.15,2014-11-28 05:41:00,
2014-11-28 00:46:00,57.9,47.4,30.22,ENE,58,5.0,13.0,68,0.00,,,0.00,Wunderground v.1.15,2014-11-28 05:46:00,
2014-11-28 00:51:00,57.7,47.2,30.22,NNW,347,5.0,13.0,68,0.00,,,0.00,Wunderground v.1.15,2014-11-28 05:51:00,
2014-11-28 01:00:00,57.3,47.2,30.22,WNW,295,6.0,6.0,69,0.00,,,0.00,Wunderground v.1.15,2014-11-28 06:00:00,
2014-11-28 01:06:00,57.1,47.0,30.22,North,5,6.0,11.0,69,0.00,,,0.00,Wunderground v.1.15,2014-11-28 06:06:00,
2014-11-28 01:16:00,56.8,47.1,30.22,NNE,19,6.0,7.0,70,0.00,,,0.00,Wunderground v.1.15,2014-11-28 06:16:00,
2014-11-28 01:21:00,56.7,47.0,30.21,NW,321,6.0,6.0,70,0.00,,,0.00,Wunderground v.1.15,2014-11-28 06:21:00,
2014-11-28 01:31:00,56.4,47.1,30.21,NW,321,4.0,4.0,71,0.00,,,0.00,Wunderground v.1.15,2014-11-28 06:31:00,
2014-11-28 01:36:00,56.2,47.3,30.21,NNE,30,4.0,15.0,72,0.00,,,0.00,Wunderground v.1.15,2014-11-28 06:36:00,
2014-11-28 01:41:00,56.1,47.6,30.21,NNW,335,4.0,4.0,73,0.00,,,0.00,Wunderground v.1.15,2014-11-28 06:41:00,
2014-11-28 01:46:00,55.9,47.4,30.21,NW,318,4.0,15.0,73,0.00,,,0.00,Wunderground v.1.15,2014-11-28 06:46:00,
2014-11-28 01:51:00,55.9,47.0,30.21,WNW,293,5.0,15.0,72,0.00,,,0.00,Wunderground v.1.15,2014-11-28 06:51:00,
2014-11-28 01:56:00,55.9,47.0,30.21,North,359,6.0,15.0,72,0.00,,,0.00,Wunderground v.1.15,2014-11-28 06:56:00,
2014-11-28 02:06:00,56.1,46.4,30.20,NE,50,7.0,15.0,70,0.00,,,0.00,Wunderground v.1.15,2014-11-28 07:06:00,
2014-11-28 02:16:00,56.1,45.7,30.20,NW,325,7.0,7.0,68,0.00,,,0.00,Wunderground v.1.15,2014-11-28 07:16:00,
2014-11-28 02:21:00,56.1,45.7,30.20,NNE,19,7.0,13.0,68,0.00,,,0.00,Wunderground v.1.15,2014-11-28 07:21:00,
2014-11-28 02:26:00,56.1,45.7,30.20,North,352,6.0,13.0,68,0.00,,,0.00,Wunderground v.1.15,2014-11-28 07:26:00,
2014-11-28 02:36:00,56.0,45.6,30.20,North,358,5.0,8.0,68,0.00,,,0.00,Wunderground v.1.15,2014-11-28 07:36:00,
2014-11-28 02:41:00,55.9,45.1,30.20,North,352,6.0,11.0,67,0.00,,,0.00,Wunderground v.1.15,2014-11-28 07:41:00,
2014-11-28 02:46:00,55.9,45.1,30.20,NW,304,6.0,11.0,67,0.00,,,0.00,Wunderground v.1.15,2014-11-28 07:46:00,
2014-11-28 02:51:00,55.8,45.4,30.20,NNE,24,5.0,11.0,68,0.00,,,0.00,Wunderground v.1.15,2014-11-28 07:51:00,
2014-11-28 02:56:00,55.7,45.3,30.20,NNW,330,5.0,11.0,68,0.00,,,0.00,Wunderground v.1.15,2014-11-28 07:56:00,
2014-11-28 03:01:00,55.7,45.3,30.20,NW,325,7.0,7.0,68,0.00,,,0.00,Wunderground v.1.15,2014-11-28 08:01:00,
2014-11-28 03:06:00,55.6,45.2,30.20,NNW,333,7.0,7.0,68,0.00,,,0.00,Wunderground v.1.15,2014-11-28 08:06:00,
2014-11-28 03:16:00,55.6,44.8,30.20,NW,319,8.0,8.0,67,0.00,,,0.00,Wunderground v.1.15,2014-11-28 08:16:00,
2014-11-28 03:21:00,55.5,44.7,30.20,NW,325,7.0,7.0,67,0.00,,,0.00,Wunderground v.1.15,2014-11-28 08:21:00,
2014-11-28 03:26:00,55.5,44.3,30.20,NNW,336,7.0,7.0,66,0.00,,,0.00,Wunderground v.1.15,2014-11-28 08:26:00,
2014-11-28 03:31:00,55.4,44.2,30.19,NNW,338,7.0,7.0,66,0.00,,,0.00,Wunderground v.1.15,2014-11-28 08:31:00,
2014-11-28 03:41:00,55.3,44.1,30.20,North,351,8.0,15.0,66,0.00,,,0.00,Wunderground v.1.15,2014-11-28 08:41:00,
2014-11-28 03:46:00,55.2,44.0,30.20,North,11,8.0,15.0,66,0.00,,,0.00,Wunderground v.1.15,2014-11-28 08:46:00,
2014-11-28 03:51:00,55.2,44.0,30.20,NNW,347,8.0,8.0,66,0.00,,,0.00,Wunderground v.1.15,2014-11-28 08:51:00,
2014-11-28 03:56:00,55.1,44.3,30.20,NNW,338,8.0,12.0,67,0.00,,,0.00,Wunderground v.1.15,2014-11-28 08:56:00,
2014-11-28 04:01:00,55.1,44.3,30.20,NNE,30,9.0,9.0,67,0.00,,,0.00,Wunderground v.1.15,2014-11-28 09:01:00,
2014-11-28 04:06:00,55.0,44.2,30.20,NNE,21,9.0,9.0,67,0.00,,,0.00,Wunderground v.1.15,2014-11-28 09:06:00,
2014-11-28 04:16:00,54.8,44.4,30.20,North,11,6.0,7.0,68,0.00,,,0.00,Wunderground v.1.15,2014-11-28 09:16:00,
2014-11-28 04:21:00,54.7,44.7,30.20,NNW,347,7.0,11.0,69,0.00,,,0.00,Wunderground v.1.15,2014-11-28 09:21:00,
2014-11-28 04:26:00,54.8,44.8,30.20,North,5,9.0,11.0,69,0.00,,,0.00,Wunderground v.1.15,2014-11-28 09:26:00,
2014-11-28 04:31:00,54.7,44.7,30.20,NW,316,10.0,10.0,69,0.00,,,0.00,Wunderground v.1.15,2014-11-28 09:31:00,
2014-11-28 04:36:00,54.7,44.7,30.21,NNW,335,10.0,17.0,69,0.00,,,0.00,Wunderground v.1.15,2014-11-28 09:36:00,
2014-11-28 04:46:00,54.5,44.9,30.21,NE,36,8.0,17.0,70,0.00,,,0.00,Wunderground v.1.15,2014-11-28 09:46:00,
2014-11-28 04:51:00,54.4,44.8,30.21,North,9,8.0,17.0,70,0.00,,,0.00,Wunderground v.1.15,2014-11-28 09:51:00,
2014-11-28 04:56:00,54.3,45.1,30.21,North,355,9.0,17.0,71,0.00,,,0.00,Wunderground v.1.15,2014-11-28 09:56:00,
2014-11-28 05:01:00,54.2,45.0,30.21,NNW,339,10.0,10.0,71,0.00,,,0.00,Wunderground v.1.15,2014-11-28 10:01:00,
2014-11-28 05:06:00,54.1,44.9,30.21,NNE,14,10.0,12.0,71,0.00,,,0.00,Wunderground v.1.15,2014-11-28 10:06:00,
2014-11-28 05:16:00,54.1,44.9,30.22,NNE,22,9.0,11.0,71,0.00,,,0.00,Wunderground v.1.15,2014-11-28 10:16:00,
2014-11-28 05:21:00,54.0,45.2,30.22,North,358,9.0,9.0,72,0.00,,,0.00,Wunderground v.1.15,2014-11-28 10:21:00,
2014-11-28 05:26:00,53.9,45.1,30.22,NNW,342,8.0,9.0,72,0.00,,,0.00,Wunderground v.1.15,2014-11-28 10:26:00,
2014-11-28 05:31:00,53.8,45.0,30.22,North,357,8.0,8.0,72,0.00,,,0.00,Wunderground v.1.15,2014-11-28 10:31:00,
2014-11-28 05:36:00,53.7,45.2,30.22,NW,322,8.0,21.0,73,0.00,,,0.00,Wunderground v.1.15,2014-11-28 10:36:00,
2014-11-28 05:41:00,53.6,45.2,30.22,North,359,7.0,7.0,73,0.00,,,0.00,Wunderground v.1.15,2014-11-28 10:41:00,
2014-11-28 05:51:00,53.4,45.3,30.22,NNW,335,5.0,21.0,74,0.00,,,0.00,Wunderground v.1.15,2014-11-28 10:51:00,
2014-11-28 05:56:00,53.3,45.6,30.22,NNE,12,7.0,21.0,75,0.00,,,0.00,Wunderground v.1.15,2014-11-28 10:56:00,
2014-11-28 06:01:00,53.3,45.6,30.22,NNE,19,8.0,8.0,75,0.00,,,0.00,Wunderground v.1.15,2014-11-28 11:01:00,
2014-11-28 06:06:00,53.2,45.5,30.22,NNW,328,8.0,8.0,75,0.00,,,0.00,Wunderground v.1.15,2014-11-28 11:06:00,
2014-11-28 06:15:00,53.1,45.7,30.23,NNE,25,7.0,7.0,76,0.00,,,0.00,Wunderground v.1.15,2014-11-28 11:15:00,
2014-11-28 06:21:00,53.0,45.6,30.23,NNW,345,6.0,6.0,76,0.00,,,0.00,Wunderground v.1.15,2014-11-28 11:21:00,
2014-11-28 06:26:00,53.0,45.6,30.23,North,358,5.0,6.0,76,0.00,,,0.00,Wunderground v.1.15,2014-11-28 11:26:00,
2014-11-28 06:31:00,53.0,45.6,30.23,NNE,16,6.0,8.0,76,0.00,,,0.00,Wunderground v.1.15,2014-11-28 11:31:00,
2014-11-28 06:36:00,53.0,45.6,30.23,NNW,338,7.0,18.0,76,0.00,,,0.00,Wunderground v.1.15,2014-11-28 11:36:00,
2014-11-28 06:41:00,52.9,45.5,30.23,North,4,7.0,18.0,76,0.00,,,0.00,Wunderground v.1.15,2014-11-28 11:41:00,
2014-11-28 06:46:00,53.0,45.6,30.24,NNE,16,6.0,18.0,76,0.00,,,0.00,Wunderground v.1.15,2014-11-28 11:46:00,
2014-11-28 06:56:00,53.0,45.3,30.24,North,8,8.0,18.0,75,0.00,,,0.00,Wunderground v.1.15,2014-11-28 11:56:00,
2014-11-28 07:01:00,53.0,45.3,30.24,NNE,16,8.0,8.0,75,0.00,,,0.00,Wunderground v.1.15,2014-11-28 12:01:00,
2014-11-28 07:06:00,53.0,45.3,30.25,NNW,347,7.0,8.0,75,0.00,,,0.00,Wunderground v.1.15,2014-11-28 12:06:00,
2014-11-28 07:15:00,53.0,45.6,30.25,NW,305,7.0,7.0,76,0.00,,,0.00,Wunderground v.1.15,2014-11-28 12:15:00,
2014-11-28 07:20:00,53.1,46.1,30.25,North,9,6.0,6.0,77,0.00,,,0.00,Wunderground v.1.15,2014-11-28 12:20:00,
2014-11-28 07:26:00,53.2,46.2,30.25,NNW,333,6.0,6.0,77,0.00,,,0.00,Wunderground v.1.15,2014-11-28 12:26:00,
2014-11-28 07:31:00,53.4,46.4,30.25,NNW,328,6.0,6.0,77,0.00,,,0.00,Wunderground v.1.15,2014-11-28 12:31:00,
2014-11-28 07:36:00,53.6,46.2,30.26,North,351,8.0,8.0,76,0.00,,,0.00,Wunderground v.1.15,2014-11-28 12:36:00,
2014-11-28 07:45:00,53.9,46.5,30.26,North,11,7.0,11.0,76,0.00,,,0.00,Wunderground v.1.15,2014-11-28 12:45:00,
2014-11-28 07:50:00,54.1,46.7,30.26,NNE,33,8.0,15.0,76,0.00,,,0.00,Wunderground v.1.15,2014-11-28 12:50:00,
2014-11-28 07:55:00,54.3,46.9,30.26,NNE,27,8.0,15.0,76,0.00,,,0.00,Wunderground v.1.15,2014-11-28 12:55:00,
2014-11-28 08:01:00,54.6,47.2,30.26,North,357,9.0,9.0,76,0.00,,,0.00,Wunderground v.1.15,2014-11-28 13:01:00,
2014-11-28 08:06:00,54.9,47.5,30.26,NNW,338,8.0,9.0,76,0.00,,,0.00,Wunderground v.1.15,2014-11-28 13:06:00,
2014-11-28 08:15:00,55.3,47.5,30.26,NNW,345,9.0,10.0,75,0.00,,,0.00,Wunderground v.1.15,2014-11-28 13:15:00,
2014-11-28 08:20:00,55.5,47.7,30.26,ENE,67,9.0,9.0,75,0.00,,,0.00,Wunderground v.1.15,2014-11-28 13:20:00,
2014-11-28 08:25:00,55.9,47.7,30.27,NW,314,8.0,9.0,74,0.00,,,0.00,Wunderground v.1.15,2014-11-28 13:25:00,
2014-11-28 08:35:00,56.3,48.1,30.27,North,360,9.0,14.0,74,0.00,,,0.00,Wunderground v.1.15,2014-11-28 13:35:00,
2014-11-28 08:40:00,56.6,48.0,30.27,NE,36,9.0,18.0,73,0.00,,,0.00,Wunderground v.1.15,2014-11-28 13:40:00,
2014-11-28 08:45:00,57.0,48.8,30.27,NNW,348,8.0,18.0,74,0.00,,,0.00,Wunderground v.1.15,2014-11-28 13:45:00,
2014-11-28 08:50:00,57.5,48.9,30.27,North,9,6.0,18.0,73,0.00,,,0.00,Wunderground v.1.15,2014-11-28 13:50:00,
2014-11-28 08:55:00,57.6,49.0,30.27,NNE,13,7.0,18.0,73,0.00,,,0.00,Wunderground v.1.15,2014-11-28 13:55:00,
2014-11-28 09:00:00,57.9,48.9,30.27,NW,311,7.0,7.0,72,0.00,,,0.00,Wunderground v.1.15,2014-11-28 14:00:00,
2014-11-28 09:06:00,58.2,49.2,30.27,North,6,8.0,9.0,72,0.00,,,0.00,Wunderground v.1.15,2014-11-28 14:06:00,
2014-11-28 09:15:00,58.6,49.2,30.28,NNE,16,7.0,10.0,71,0.00,,,0.00,Wunderground v.1.15,2014-11-28 14:15:00,
2014-11-28 09:20:00,58.9,49.1,30.28,NNE,16,7.0,10.0,70,0.00,,,0.00,Wunderground v.1.15,2014-11-28 14:20:00,
2014-11-28 09:25:00,59.1,49.3,30.28,NNW,342,7.0,13.0,70,0.00,,,0.00,Wunderground v.1.15,2014-11-28 14:25:00,
2014-11-28 09:30:00,59.3,49.1,30.28,NNW,345,8.0,10.0,69,0.00,,,0.00,Wunderground v.1.15,2014-11-28 14:30:00,
2014-11-28 09:40:00,60.0,49.8,30.28,NW,322,7.0,19.0,69,0.00,,,0.00,Wunderground v.1.15,2014-11-28 14:40:00,
2014-11-28 09:45:00,60.2,50.0,30.28,NNW,328,7.0,19.0,69,0.00,,,0.00,Wunderground v.1.15,2014-11-28 14:45:00,
2014-11-28 09:50:00,60.4,50.2,30.28,NNW,338,7.0,7.0,69,0.00,,,0.00,Wunderground v.1.15,2014-11-28 14:50:00,
2014-11-28 09:55:00,60.5,49.9,30.28,North,357,8.0,8.0,68,0.00,,,0.00,Wunderground v.1.15,2014-11-28 14:55:00,
2014-11-28 10:00:00,60.9,50.3,30.28,NNW,345,8.0,19.0,68,0.00,,,0.00,Wunderground v.1.15,2014-11-28 15:00:00,
2014-11-28 10:06:00,61.1,50.1,30.28,NNE,13,8.0,19.0,67,0.00,,,0.00,Wunderground v.1.15,2014-11-28 15:06:00,
2014-11-28 10:15:00,61.6,50.1,30.27,NW,318,8.0,8.0,66,0.00,,,0.00,Wunderground v.1.15,2014-11-28 15:15:00,
2014-11-28 10:20:00,61.8,50.3,30.28,NNE,25,9.0,12.0,66,0.00,,,0.00,Wunderground v.1.15,2014-11-28 15:20:00,
2014-11-28 10:25:00,62.1,50.6,30.28,North,360,7.0,12.0,66,0.00,,,0.00,Wunderground v.1.15,2014-11-28 15:25:00,
2014-11-28 10:30:00,62.6,51.1,30.27,NW,318,7.0,7.0,66,0.00,,,0.00,Wunderground v.1.15,2014-11-28 15:30:00,
2014-11-28 10:35:00,62.9,51.0,30.28,North,1,7.0,8.0,65,0.00,,,0.00,Wunderground v.1.15,2014-11-28 15:35:00,
2014-11-28 10:45:00,63.4,51.4,30.27,NNE,19,6.0,15.0,65,0.00,,,0.00,Wunderground v.1.15,2014-11-28 15:45:00,
2014-11-28 10:50:00,63.5,51.1,30.27,North,354,6.0,6.0,64,0.00,,,0.00,Wunderground v.1.15,2014-11-28 15:50:00,
2014-11-28 10:55:00,64.1,52.1,30.27,NNW,336,6.0,15.0,65,0.00,,,0.00,Wunderground v.1.15,2014-11-28 15:55:00,
2014-11-28 11:00:00,64.3,51.9,30.26,NNW,330,6.0,6.0,64,0.00,,,0.00,Wunderground v.1.15,2014-11-28 16:00:00,
2014-11-28 11:06:00,64.7,51.8,30.26,NNW,328,6.0,6.0,63,0.00,,,0.00,Wunderground v.1.15,2014-11-28 16:06:00,
2014-11-28 11:15:00,65.1,52.2,30.26,WNW,291,6.0,7.0,63,0.00,,,0.00,Wunderground v.1.15,2014-11-28 16:15:00,
2014-11-28 11:20:00,65.1,52.2,30.26,NE,43,7.0,7.0,63,0.00,,,0.00,Wunderground v.1.15,2014-11-28 16:20:00,
2014-11-28 11:25:00,65.0,52.1,30.26,NNE,16,9.0,13.0,63,0.00,,,0.00,Wunderground v.1.15,2014-11-28 16:25:00,
2014-11-28 11:31:00,65.1,52.2,30.26,North,6,9.0,9.0,63,0.00,,,0.00,Wunderground v.1.15,2014-11-28 16:31:00,
2014-11-28 11:36:00,65.8,52.9,30.25,North,4,7.0,17.0,63,0.00,,,0.00,Wunderground v.1.15,2014-11-28 16:36:00,
2014-11-28 11:41:00,66.2,52.8,30.25,North,358,5.0,17.0,62,0.00,,,0.00,Wunderground v.1.15,2014-11-28 16:41:00,
2014-11-28 11:50:00,66.3,52.9,30.25,NNE,23,7.0,17.0,62,0.00,,,0.00,Wunderground v.1.15,2014-11-28 16:50:00,
2014-11-28 11:55:00,66.3,52.9,30.25,West,270,6.0,17.0,62,0.00,,,0.00,Wunderground v.1.15,2014-11-28 16:55:00,
2014-11-28 12:00:00,66.5,52.6,30.24,NW,321,6.0,17.0,61,0.00,,,0.00,Wunderground v.1.15,2014-11-28 17:00:00,
2014-11-28 12:06:00,66.6,53.2,30.24,NE,41,7.0,17.0,62,0.00,,,0.00,Wunderground v.1.15,2014-11-28 17:06:00,
2014-11-28 12:16:00,67.0,53.1,30.24,NW,323,6.0,7.0,61,0.00,,,0.00,Wunderground v.1.15,2014-11-28 17:16:00,
2014-11-28 12:26:00,66.7,53.3,30.23,NW,304,7.0,10.0,62,0.00,,,0.00,Wunderground v.1.15,2014-11-28 17:26:00,
2014-11-28 12:31:00,66.9,53.0,30.23,NNW,342,7.0,9.0,61,0.00,,,0.00,Wunderground v.1.15,2014-11-28 17:31:00,
2014-11-28 12:36:00,67.0,53.5,30.23,NW,316,7.0,16.0,62,0.00,,,0.00,Wunderground v.1.15,2014-11-28 17:36:00,
2014-11-28 12:41:00,67.0,53.1,30.22,NE,53,7.0,7.0,61,0.00,,,0.00,Wunderground v.1.15,2014-11-28 17:41:00,
2014-11-28 12:46:00,67.2,53.7,30.22,NNW,333,6.0,16.0,62,0.00,,,0.00,Wunderground v.1.15,2014-11-28 17:46:00,
2014-11-28 12:55:00,67.5,53.6,30.21,NE,40,6.0,9.0,61,0.00,,,0.00,Wunderground v.1.15,2014-11-28 17:55:00,
2014-11-28 13:00:00,67.7,53.8,30.21,NE,37,7.0,7.0,61,0.00,,,0.00,Wunderground v.1.15,2014-11-28 18:00:00,
2014-11-28 13:06:00,68.1,54.1,30.21,NNE,26,6.0,7.0,61,0.00,,,0.00,Wunderground v.1.15,2014-11-28 18:06:00,
2014-11-28 13:16:00,68.3,54.3,30.21,NNW,347,6.0,6.0,61,0.00,,,0.00,Wunderground v.1.15,2014-11-28 18:16:00,
2014-11-28 13:21:00,68.3,53.9,30.20,NE,34,7.0,10.0,60,0.00,,,0.00,Wunderground v.1.15,2014-11-28 18:21:00,
2014-11-28 13:31:00,68.8,53.9,30.20,NE,43,7.0,13.0,59,0.00,,,0.00,Wunderground v.1.15,2014-11-28 18:31:00,
2014-11-28 13:36:00,68.6,54.2,30.20,North,4,8.0,16.0,60,0.00,,,0.00,Wunderground v.1.15,2014-11-28 18:36:00,
2014-11-28 13:41:00,68.8,54.3,30.19,NE,42,7.0,16.0,60,0.00,,,0.00,Wunderground v.1.15,2014-11-28 18:41:00,
2014-11-28 13:46:00,68.7,54.3,30.19,NNE,32,7.0,16.0,60,0.00,,,0.00,Wunderground v.1.15,2014-11-28 18:46:00,
2014-11-28 13:51:00,69.0,54.5,30.19,North,350,8.0,16.0,60,0.00,,,0.00,Wunderground v.1.15,2014-11-28 18:51:00,
2014-11-28 14:00:00,69.3,53.9,30.19,North,11,6.0,16.0,58,0.00,,,0.00,Wunderground v.1.15,2014-11-28 19:00:00,
2014-11-28 14:06:00,69.4,54.0,30.18,ENE,64,7.0,16.0,58,0.00,,,0.00,Wunderground v.1.15,2014-11-28 19:06:00,
2014-11-28 14:16:00,69.4,54.0,30.18,NE,44,8.0,12.0,58,0.00,,,0.00,Wunderground v.1.15,2014-11-28 19:16:00,
2014-11-28 14:21:00,69.4,54.0,30.18,West,281,8.0,8.0,58,0.00,,,0.00,Wunderground v.1.15,2014-11-28 19:21:00,
2014-11-28 14:26:00,69.5,54.5,30.18,NNE,27,8.0,12.0,59,0.00,,,0.00,Wunderground v.1.15,2014-11-28 19:26:00,
2014-11-28 14:36:00,69.4,54.0,30.18,North,11,8.0,8.0,58,0.00,,,0.00,Wunderground v.1.15,2014-11-28 19:36:00,
2014-11-28 14:41:00,69.4,54.0,30.18,NNW,348,8.0,8.0,58,0.00,,,0.00,Wunderground v.1.15,2014-11-28 19:41:00,
2014-11-28 14:46:00,69.4,54.0,30.18,North,1,7.0,16.0,58,0.00,,,0.00,Wunderground v.1.15,2014-11-28 19:46:00,
2014-11-28 14:51:00,69.1,53.7,30.18,NNW,345,8.0,8.0,58,0.00,,,0.00,Wunderground v.1.15,2014-11-28 19:51:00,
2014-11-28 14:56:00,68.9,53.5,30.18,WNW,294,8.0,16.0,58,0.00,,,0.00,Wunderground v.1.15,2014-11-28 19:56:00,
2014-11-28 15:06:00,68.8,53.4,30.18,North,11,7.0,16.0,58,0.00,,,0.00,Wunderground v.1.15,2014-11-28 20:06:00,
2014-11-28 15:16:00,68.8,53.9,30.18,NE,48,8.0,10.0,59,0.00,,,0.00,Wunderground v.1.15,2014-11-28 20:16:00,
2014-11-28 15:21:00,68.7,53.8,30.18,NE,53,8.0,8.0,59,0.00,,,0.00,Wunderground v.1.15,2014-11-28 20:21:00,
2014-11-28 15:26:00,68.4,53.5,30.19,North,359,8.0,9.0,59,0.00,,,0.00,Wunderground v.1.15,2014-11-28 20:26:00,
2014-11-28 15:31:00,68.5,53.6,30.18,North,358,7.0,7.0,59,0.00,,,0.00,Wunderground v.1.15,2014-11-28 20:31:00,
2014-11-28 15:41:00,68.7,53.8,30.18,NW,319,5.0,19.0,59,0.00,,,0.00,Wunderground v.1.15,2014-11-28 20:41:00,
2014-11-28 15:46:00,68.6,53.2,30.18,NNE,13,5.0,19.0,58,0.00,,,0.00,Wunderground v.1.15,2014-11-28 20:46:00,
2014-11-28 15:51:00,68.3,52.9,30.18,North,4,6.0,19.0,58,0.00,,,0.00,Wunderground v.1.15,2014-11-28 20:51:00,
2014-11-28 15:56:00,68.4,52.6,30.18,ENE,58,6.0,19.0,57,0.00,,,0.00,Wunderground v.1.15,2014-11-28 20:56:00,
2014-11-28 16:01:00,68.4,52.1,30.19,North,353,6.0,19.0,56,0.00,,,0.00,Wunderground v.1.15,2014-11-28 21:01:00,
2014-11-28 16:06:00,68.4,52.1,30.19,NNE,30,7.0,19.0,56,0.00,,,0.00,Wunderground v.1.15,2014-11-28 21:06:00,
2014-11-28 16:16:00,68.4,53.0,30.19,North,350,7.0,10.0,58,0.00,,,0.00,Wunderground v.1.15,2014-11-28 21:16:00,
2014-11-28 16:21:00,68.3,53.4,30.19,North,11,9.0,9.0,59,0.00,,,0.00,Wunderground v.1.15,2014-11-28 21:21:00,
2014-11-28 16:26:00,68.3,53.4,30.19,WNW,293,7.0,9.0,59,0.00,,,0.00,Wunderground v.1.15,2014-11-28 21:26:00,
2014-11-28 16:31:00,68.2,53.8,30.19,North,354,7.0,7.0,60,0.00,,,0.00,Wunderground v.1.15,2014-11-28 21:31:00,
2014-11-28 16:36:00,68.2,53.8,30.19,North,350,6.0,16.0,60,0.00,,,0.00,Wunderground v.1.15,2014-11-28 21:36:00,
2014-11-28 16:46:00,67.8,54.3,30.19,NNW,342,6.0,9.0,62,0.00,,,0.00,Wunderground v.1.15,2014-11-28 21:46:00,
2014-11-28 16:51:00,67.6,54.1,30.19,North,351,7.0,7.0,62,0.00,,,0.00,Wunderground v.1.15,2014-11-28 21:51:00,
2014-11-28 16:56:00,67.5,54.5,30.19,NNE,21,7.0,16.0,63,0.00,,,0.00,Wunderground v.1.15,2014-11-28 21:56:00,
2014-11-28 17:01:00,67.3,54.3,30.19,NNE,25,8.0,8.0,63,0.00,,,0.00,Wunderground v.1.15,2014-11-28 22:01:00,
2014-11-28 17:06:00,67.2,54.2,30.19,NW,308,8.0,8.0,63,0.00,,,0.00,Wunderground v.1.15,2014-11-28 22:06:00,
2014-11-28 17:16:00,66.7,54.1,30.19,North,350,6.0,7.0,64,0.00,,,0.00,Wunderground v.1.15,2014-11-28 22:16:00,
2014-11-28 17:21:00,66.5,53.9,30.19,NNE,19,6.0,6.0,64,0.00,,,0.00,Wunderground v.1.15,2014-11-28 22:21:00,
2014-11-28 17:26:00,66.2,54.1,30.19,NE,34,6.0,6.0,65,0.00,,,0.00,Wunderground v.1.15,2014-11-28 22:26:00,
2014-11-28 17:31:00,66.0,53.9,30.20,North,352,6.0,6.0,65,0.00,,,0.00,Wunderground v.1.15,2014-11-28 22:31:00,
2014-11-28 17:36:00,65.8,54.1,30.20,NNW,345,6.0,14.0,66,0.00,,,0.00,Wunderground v.1.15,2014-11-28 22:36:00,
2014-11-28 17:41:00,65.6,53.9,30.20,North,4,5.0,14.0,66,0.00,,,0.00,Wunderground v.1.15,2014-11-28 22:41:00,
2014-11-28 17:51:00,65.3,54.1,30.20,NNE,21,4.0,14.0,67,0.00,,,0.00,Wunderground v.1.15,2014-11-28 22:51:00,
2014-11-28 17:56:00,65.2,54.0,30.20,NNW,348,4.0,14.0,67,0.00,,,0.00,Wunderground v.1.15,2014-11-28 22:56:00,
2014-11-28 18:01:00,65.1,53.9,30.20,North,358,4.0,4.0,67,0.00,,,0.00,Wunderground v.1.15,2014-11-28 23:01:00,
2014-11-28 18:06:00,64.9,54.1,30.20,NNW,335,4.0,4.0,68,0.00,,,0.00,Wunderground v.1.15,2014-11-28 23:06:00,
2014-11-28 18:15:00,64.7,54.3,30.20,North,353,4.0,7.0,69,0.00,,,0.00,Wunderground v.1.15,2014-11-28 23:15:00,
2014-11-28 18:21:00,64.5,54.5,30.20,NNW,347,4.0,4.0,70,0.00,,,0.00,Wunderground v.1.15,2014-11-28 23:21:00,
2014-11-28 18:26:00,64.4,54.4,30.21,NNW,345,4.0,5.0,70,0.00,,,0.00,Wunderground v.1.15,2014-11-28 23:26:00,
2014-11-28 18:31:00,64.3,54.3,30.21,NNE,27,5.0,8.0,70,0.00,,,0.00,Wunderground v.1.15,2014-11-28 23:31:00,
2014-11-28 18:36:00,64.1,54.1,30.21,North,11,5.0,9.0,70,0.00,,,0.00,Wunderground v.1.15,2014-11-28 23:36:00,
2014-11-28 18:41:00,64.0,54.4,30.21,NNE,22,5.0,5.0,71,0.00,,,0.00,Wunderground v.1.15,2014-11-28 23:41:00,
2014-11-28 18:46:00,63.9,54.3,30.21,North,349,5.0,14.0,71,0.00,,,0.00,Wunderground v.1.15,2014-11-28 23:46:00,
2014-11-28 18:56:00,63.7,54.1,30.21,WNW,292,4.0,14.0,71,0.00,,,0.00,Wunderground v.1.15,2014-11-28 23:56:00,
2014-11-28 19:01:00,63.5,53.9,30.21,WNW,302,4.0,4.0,71,0.00,,,0.00,Wunderground v.1.15,2014-11-29 00:01:00,
2014-11-28 19:06:00,63.3,54.1,30.21,North,9,4.0,5.0,72,0.00,,,0.00,Wunderground v.1.15,2014-11-29 00:06:00,
2014-11-28 19:15:00,63.0,54.2,30.21,North,360,4.0,4.0,73,0.00,,,0.00,Wunderground v.1.15,2014-11-29 00:15:00,
2014-11-28 19:20:00,62.8,54.0,30.21,WNW,298,3.0,3.0,73,0.00,,,0.00,Wunderground v.1.15,2014-11-29 00:20:00,
2014-11-28 19:26:00,62.6,54.2,30.21,NNE,22,3.0,3.0,74,0.00,,,0.00,Wunderground v.1.15,2014-11-29 00:26:00,
2014-11-28 19:31:00,62.4,54.0,30.21,NNE,23,2.0,5.0,74,0.00,,,0.00,Wunderground v.1.15,2014-11-29 00:31:00,
2014-11-28 19:36:00,62.2,53.8,30.21,North,353,3.0,10.0,74,0.00,,,0.00,Wunderground v.1.15,2014-11-29 00:36:00,
2014-11-28 19:41:00,62.0,54.0,30.22,NNW,341,3.0,3.0,75,0.00,,,0.00,Wunderground v.1.15,2014-11-29 00:41:00,
2014-11-28 19:46:00,61.9,53.9,30.22,North,360,3.0,10.0,75,0.00,,,0.00,Wunderground v.1.15,2014-11-29 00:46:00,
2014-11-28 19:51:00,61.7,54.1,30.22,North,360,3.0,3.0,76,0.00,,,0.00,Wunderground v.1.15,2014-11-29 00:51:00,
2014-11-28 20:01:00,61.5,53.9,30.22,NNW,345,4.0,10.0,76,0.00,,,0.00,Wunderground v.1.15,2014-11-29 01:01:00,
2014-11-28 20:06:00,61.4,54.1,30.22,NNW,335,4.0,10.0,77,0.00,,,0.00,Wunderground v.1.15,2014-11-29 01:06:00,
2014-11-28 20:15:00,61.1,53.8,30.22,North,9,4.0,5.0,77,0.00,,,0.00,Wunderground v.1.15,2014-11-29 01:15:00,
2014-11-28 20:20:00,61.0,53.7,30.22,North,352,4.0,4.0,77,0.00,,,0.00,Wunderground v.1.15,2014-11-29 01:20:00,
2014-11-28 20:25:00,60.9,53.6,30.22,North,4,4.0,5.0,77,0.00,,,0.00,Wunderground v.1.15,2014-11-29 01:25:00,
2014-11-28 20:31:00,60.9,53.6,30.22,NNW,339,5.0,5.0,77,0.00,,,0.00,Wunderground v.1.15,2014-11-29 01:31:00,
2014-11-28 20:36:00,60.8,53.5,30.22,NNE,12,4.0,7.0,77,0.00,,,0.00,Wunderground v.1.15,2014-11-29 01:36:00,
2014-11-28 20:41:00,60.7,53.4,30.23,NNE,25,4.0,7.0,77,0.00,,,0.00,Wunderground v.1.15,2014-11-29 01:41:00,
2014-11-28 20:46:00,60.7,53.4,30.22,NNW,328,5.0,7.0,77,0.00,,,0.00,Wunderground v.1.15,2014-11-29 01:46:00,
2014-11-28 20:55:00,60.5,53.3,30.23,NNW,345,6.0,7.0,77,0.00,,,0.00,Wunderground v.1.15,2014-11-29 01:55:00,
2014-11-28 21:01:00,60.5,53.3,30.22,NW,322,6.0,6.0,77,0.00,,,0.00,Wunderground v.1.15,2014-11-29 02:01:00,
2014-11-28 21:06:00,60.4,53.2,30.22,NW,322,6.0,6.0,77,0.00,,,0.00,Wunderground v.1.15,2014-11-29 02:06:00,
2014-11-28 21:15:00,60.1,52.9,30.23,North,4,6.0,8.0,77,0.00,,,0.00,Wunderground v.1.15,2014-11-29 02:15:00,
2014-11-28 21:20:00,59.9,52.7,30.23,NNE,16,7.0,7.0,77,0.00,,,0.00,Wunderground v.1.15,2014-11-29 02:20:00,
2014-11-28 21:25:00,59.8,52.6,30.23,NNE,16,6.0,7.0,77,0.00,,,0.00,Wunderground v.1.15,2014-11-29 02:25:00,
2014-11-28 21:30:00,59.7,52.5,30.23,NNE,25,6.0,6.0,77,0.00,,,0.00,Wunderground v.1.15,2014-11-29 02:30:00,
2014-11-28 21:40:00,59.4,52.5,30.23,NNE,32,6.0,10.0,78,0.00,,,0.00,Wunderground v.1.15,2014-11-29 02:40:00,
2014-11-28 21:45:00,59.2,52.3,30.23,NNE,13,6.0,10.0,78,0.00,,,0.00,Wunderground v.1.15,2014-11-29 02:45:00,
2014-11-28 21:50:00,59.1,52.2,30.23,NNW,345,7.0,10.0,78,0.00,,,0.00,Wunderground v.1.15,2014-11-29 02:50:00,
2014-11-28 21:55:00,58.9,52.1,30.23,NW,305,6.0,10.0,78,0.00,,,0.00,Wunderground v.1.15,2014-11-29 02:55:00,
2014-11-28 22:00:00,58.8,52.0,30.22,NNW,347,6.0,6.0,78,0.00,,,0.00,Wunderground v.1.15,2014-11-29 03:00:00,
2014-11-28 22:06:00,58.6,51.8,30.22,NNW,336,7.0,9.0,78,0.00,,,0.00,Wunderground v.1.15,2014-11-29 03:06:00,
2014-11-28 22:15:00,58.4,51.6,30.23,NW,321,8.0,8.0,78,0.00,,,0.00,Wunderground v.1.15,2014-11-29 03:15:00,
2014-11-28 22:20:00,58.3,51.5,30.23,North,6,8.0,15.0,78,0.00,,,0.00,Wunderground v.1.15,2014-11-29 03:20:00,
2014-11-28 22:25:00,58.2,51.4,30.22,NNW,341,7.0,15.0,78,0.00,,,0.00,Wunderground v.1.15,2014-11-29 03:25:00,
2014-11-28 22:30:00,58.1,51.3,30.23,NNE,19,8.0,8.0,78,0.00,,,0.00,Wunderground v.1.15,2014-11-29 03:30:00,
2014-11-28 22:35:00,58.0,51.2,30.22,North,358,7.0,14.0,78,0.00,,,0.00,Wunderground v.1.15,2014-11-29 03:35:00,
2014-11-28 22:45:00,57.8,51.3,30.23,North,354,9.0,14.0,79,0.00,,,0.00,Wunderground v.1.15,2014-11-29 03:45:00,
2014-11-28 22:50:00,57.7,51.2,30.23,NNE,15,9.0,9.0,79,0.00,,,0.00,Wunderground v.1.15,2014-11-29 03:50:00,